Hourly Weather Ruzhycheve

Today, 17 May, Monday

Time Temperature Precipitation Wind Pressure Humidity
00:00 +16°C° 1.4 mm 3 mps 738 mmHg 90%
01:00 +16°C° 1.4 mm 2 mps 738 mmHg 93%
02:00 +16°C° 0 mm 2 mps 737 mmHg 96%
03:00 +16°C° 0.9 mm 2 mps 736 mmHg 96%
04:00 +16°C° 0.9 mm 3 mps 736 mmHg 97%
05:00 +16°C° 0.9 mm 3 mps 735 mmHg 98%
06:00 +16°C° 0.3 mm 3 mps 735 mmHg 96%
07:00 +17°C° 0.3 mm 3 mps 735 mmHg 94%
08:00 +17°C° 0 mm 3 mps 735 mmHg 91%
09:00 +18°C° 0.6 mm 2 mps 736 mmHg 89%
10:00 +18°C° 0.6 mm 2 mps 736 mmHg 87%
11:00 +19°C° 0.6 mm 2 mps 736 mmHg 85%
12:00 +20°C° 0.5 mm 2 mps 736 mmHg 82%
13:00 +21°C° 0.5 mm 1 mps 736 mmHg 79%
14:00 +22°C° 0.5 mm 1 mps 735 mmHg 75%
15:00 +22°C° 0.7 mm 1 mps 735 mmHg 75%
16:00 +21°C° 0.7 mm 2 mps 735 mmHg 74%
17:00 +22°C° 0.7 mm 3 mps 735 mmHg 73%
18:00 +20°C° 0.2 mm 3 mps 735 mmHg 78%
19:00 +18°C° 0.2 mm 3 mps 736 mmHg 84%
20:00 +17°C° 0.2 mm 3 mps 736 mmHg 89%
21:00 +16°C° 0 mm 3 mps 736 mmHg 90%
22:00 +16°C° 0 mm 3 mps 736 mmHg 92%
23:00 +14°C° 0 mm 3 mps 737 mmHg 93%

Tomorrow, 18 May, Tuesday

Time Temperature Precipitation Wind Pressure Humidity
00:00 +14°C° 0 mm 3 mps 737 mmHg 93%
01:00 +13°C° 0 mm 3 mps 737 mmHg 94%
02:00 +13°C° 0 mm 3 mps 737 mmHg 94%
03:00 +13°C° 0.1 mm 3 mps 736 mmHg 94%
04:00 +13°C° 0.1 mm 3 mps 736 mmHg 94%
05:00 +13°C° 0.1 mm 3 mps 736 mmHg 94%
06:00 +14°C° 0.3 mm 3 mps 737 mmHg 90%
07:00 +15°C° 0.3 mm 4 mps 737 mmHg 85%
08:00 +16°C° 0.3 mm 5 mps 737 mmHg 81%
09:00 +17°C° 0.2 mm 5 mps 737 mmHg 77%
10:00 +19°C° 0.2 mm 5 mps 737 mmHg 72%
11:00 +20°C° 0.2 mm 6 mps 736 mmHg 67%
12:00 +20°C° 0.6 mm 6 mps 736 mmHg 68%
13:00 +20°C° 0.6 mm 5 mps 736 mmHg 69%
14:00 +20°C° 0.6 mm 5 mps 736 mmHg 70%
15:00 +19°C° 0.5 mm 5 mps 735 mmHg 72%
16:00 +19°C° 0.5 mm 5 mps 735 mmHg 73%
17:00 +19°C° 0.5 mm 5 mps 735 mmHg 74%
18:00 +16°C° 0.1 mm 5 mps 735 mmHg 79%
19:00 +15°C° 0.1 mm 5 mps 735 mmHg 84%
20:00 +14°C° 0.1 mm 5 mps 735 mmHg 90%
21:00 +13°C° 0 mm 4 mps 735 mmHg 91%
22:00 +13°C° 0 mm 4 mps 735 mmHg 92%
23:00 +12°C° 0 mm 4 mps 735 mmHg 94%

Day after tomorrow, 19 May, Wednesday

Time Temperature Precipitation Wind Pressure Humidity
00:00 +12°C° 0 mm 4 mps 735 mmHg 94%
01:00 +11°C° 0 mm 3 mps 735 mmHg 94%
02:00 +11°C° 0 mm 3 mps 735 mmHg 94%
03:00 +11°C° 0 mm 3 mps 736 mmHg 94%
04:00 +11°C° 0 mm 3 mps 736 mmHg 93%
05:00 +10°C° 0 mm 3 mps 736 mmHg 93%
06:00 +12°C° 0 mm 3 mps 736 mmHg 88%
07:00 +13°C° 0 mm 3 mps 737 mmHg 82%
08:00 +14°C° 0 mm 4 mps 737 mmHg 77%
09:00 +15°C° 0 mm 4 mps 737 mmHg 73%
10:00 +17°C° 0 mm 4 mps 737 mmHg 68%
11:00 +18°C° 0 mm 4 mps 737 mmHg 63%
12:00 +18°C° 0 mm 4 mps 737 mmHg 63%
13:00 +19°C° 0 mm 4 mps 737 mmHg 63%
14:00 +19°C° 0 mm 4 mps 737 mmHg 62%
15:00 +18°C° 0.1 mm 4 mps 738 mmHg 66%
16:00 +18°C° 0.1 mm 4 mps 738 mmHg 69%
17:00 +17°C° 0.1 mm 4 mps 738 mmHg 73%
18:00 +15°C° 0.2 mm 5 mps 738 mmHg 80%
19:00 +13°C° 0.2 mm 5 mps 738 mmHg 86%
20:00 +11°C° 0.2 mm 6 mps 739 mmHg 93%
21:00 +11°C° 0 mm 6 mps 739 mmHg 92%
22:00 +12°C° 0 mm 5 mps 739 mmHg 91%
23:00 +12°C° 0 mm 5 mps 739 mmHg 90%

20 May, Thursday

Time Temperature Precipitation Wind Pressure Humidity
00:00 +10°C° 0 mm 5 mps 739 mmHg 89%
01:00 +10°C° 0 mm 5 mps 739 mmHg 88%
02:00 +10°C° 0 mm 6 mps 739 mmHg 88%
03:00 +10°C° 0 mm 5 mps 740 mmHg 89%
04:00 +10°C° 0 mm 5 mps 740 mmHg 90%
05:00 +9°C° 0 mm 5 mps 740 mmHg 92%
06:00 +12°C° 0 mm 5 mps 740 mmHg 85%
07:00 +13°C° 0 mm 5 mps 740 mmHg 78%
08:00 +15°C° 0 mm 5 mps 740 mmHg 72%
09:00 +16°C° 0.1 mm 5 mps 740 mmHg 67%
10:00 +17°C° 0.1 mm 5 mps 740 mmHg 63%
11:00 +19°C° 0.1 mm 5 mps 741 mmHg 58%
12:00 +19°C° 0.3 mm 5 mps 741 mmHg 59%
13:00 +19°C° 0.3 mm 5 mps 740 mmHg 59%
14:00 +19°C° 0.3 mm 5 mps 740 mmHg 59%
15:00 +18°C° 0.6 mm 4 mps 740 mmHg 69%
16:00 +15°C° 0.6 mm 4 mps 741 mmHg 79%
17:00 +13°C° 0.6 mm 4 mps 741 mmHg 89%
18:00 +13°C° 0.1 mm 4 mps 741 mmHg 91%
19:00 +13°C° 0.1 mm 3 mps 741 mmHg 92%
20:00 +13°C° 0.1 mm 3 mps 741 mmHg 93%
21:00 +13°C° 1.7 mm 3 mps 741 mmHg 94%
22:00 +13°C° 1.7 mm 3 mps 741 mmHg 94%
23:00 +12°C° 1.7 mm 3 mps 741 mmHg 94%

21 May, Friday

Time Temperature Precipitation Wind Pressure Humidity
00:00 +12°C° 0.2 mm 3 mps 741 mmHg 94%
01:00 +11°C° 0.2 mm 3 mps 741 mmHg 94%
02:00 +10°C° 0.2 mm 3 mps 741 mmHg 94%
03:00 +10°C° 0 mm 2 mps 741 mmHg 95%
04:00 +10°C° 0 mm 2 mps 741 mmHg 95%
05:00 +11°C° 0 mm 1 mps 742 mmHg 96%
06:00 +13°C° 0 mm 1 mps 742 mmHg 91%
07:00 +14°C° 0 mm 2 mps 742 mmHg 86%
08:00 +15°C° 0 mm 2 mps 743 mmHg 82%
09:00 +16°C° 0 mm 2 mps 743 mmHg 78%
10:00 +17°C° 0 mm 3 mps 743 mmHg 74%
11:00 +18°C° 0 mm 3 mps 744 mmHg 70%
12:00 +18°C° 0 mm 3 mps 744 mmHg 67%
13:00 +18°C° 0 mm 3 mps 744 mmHg 65%
14:00 +19°C° 0 mm 3 mps 744 mmHg 62%
15:00 +19°C° 0 mm 3 mps 744 mmHg 63%
16:00 +18°C° 0 mm 3 mps 744 mmHg 65%
17:00 +18°C° 0 mm 4 mps 744 mmHg 66%
18:00 +17°C° 0 mm 4 mps 745 mmHg 72%
19:00 +14°C° 0 mm 4 mps 745 mmHg 77%
20:00 +13°C° 0 mm 4 mps 745 mmHg 83%
21:00 +13°C° 0 mm 4 mps 745 mmHg 83%
22:00 +12°C° 0 mm 3 mps 745 mmHg 83%
23:00 +12°C° 0 mm 3 mps 745 mmHg 83%

22 May, Saturday

Time Temperature Precipitation Wind Pressure Humidity
00:00 +12°C° 0 mm 3 mps 745 mmHg 83%
01:00 +11°C° 0 mm 3 mps 745 mmHg 84%
02:00 +11°C° 0 mm 3 mps 745 mmHg 84%
03:00 +11°C° 0 mm 3 mps 745 mmHg 85%
04:00 +11°C° 0 mm 4 mps 745 mmHg 86%
05:00 +11°C° 0 mm 4 mps 745 mmHg 87%
06:00 +12°C° 0 mm 4 mps 745 mmHg 82%
07:00 +14°C° 0 mm 5 mps 745 mmHg 76%
08:00 +15°C° 0 mm 6 mps 745 mmHg 71%
09:00 +16°C° 0 mm 6 mps 745 mmHg 68%
10:00 +17°C° 0 mm 5 mps 746 mmHg 65%
11:00 +19°C° 0 mm 5 mps 746 mmHg 62%
12:00 +19°C° 0 mm 5 mps 746 mmHg 62%
13:00 +19°C° 0 mm 5 mps 745 mmHg 62%
14:00 +19°C° 0 mm 6 mps 745 mmHg 63%
15:00 +19°C° 0 mm 5 mps 745 mmHg 64%
16:00 +19°C° 0 mm 5 mps 745 mmHg 66%
17:00 +19°C° 0 mm 5 mps 745 mmHg 67%
18:00 +17°C° 0 mm 5 mps 745 mmHg 72%
19:00 +16°C° 0 mm 5 mps 745 mmHg 76%
20:00 +14°C° 0 mm 4 mps 745 mmHg 80%
21:00 +14°C° 0 mm 4 mps 745 mmHg 83%
22:00 +13°C° 0 mm 4 mps 745 mmHg 86%
23:00 +13°C° 0 mm 4 mps 745 mmHg 89%
Show more